Location: Burzi?i
(45.0869°N, 16.0577°E)
Time: 11:45:30
(UTC+00:00)

Meteor 2-10 Rocket - Pass Details

Date: 29 October 2020
Orbit: 733 x 885 km, 81.2° (Epoch: 27 November)

Event Time Altitude Azimuth Distance (km) Brightness Sun altitude
Rises 17:47:57 0° 201° (SSW) 3,298 7.0 -21.7°
Reaches altitude 10° 17:50:25 10° 206° (SSW) 2,348 6.3 -22.2°
Maximum altitude 17:55:34 55° 284° (WNW) 926 4.2 -23.1°
Drops below altitude 10° 18:00:36 10° 2° (N) 2,282 6.0 -24.0°
Sets 18:02:58 0° 7° (N) 3,197 6.7 -24.4°
